Location: Unspecified
(0.0000°N, 0.0000°E)
Time: 13:38:54
(UTC+00:00)

Courier 1B Rocket - Pass Details

Date: 20 November 2019
Orbit: 920 x 1202 km, 28.2° (Epoch: 08 December)

Event Time Altitude Azimuth Distance (km) Brightness Sun altitude
Rises 13:22:18 0° 286° (WNW) 3,650 8.2 59.2°
Reaches altitude 10° 13:26:34 10° 312° (NW) 2,759 7.6 58.4°
Maximum altitude 13:29:37 13° 339° (NNW) 2,561 7.3 57.8°
Drops below altitude 10° 13:32:47 10° 7° (N) 2,852 7.3 57.2°
Sets 13:37:22 0° 32° (NNE) 3,878 7.8 56.3°
